Regional Weather Roundup
Issued by NWS

Home | Current Version | Previous Version | Graphics & Text | Print | Product List | Glossary On
Versions: 1 2 3 4 5 6 7 8 9 10 11 12 13 14 15 16 17 18 19 20 21 22 23 24 25 26 27
000
ASUS45 KTFX 290710
RWRMT
MONTANA REGIONAL WEATHER ROUNDUP
NATIONAL WEATHER SERVICE GREAT FALLS MT
100 AM MDT SUN MAY 29 2016

NOTE: "FAIR" INDICATES FEW OR NO CLOUDS BELOW 12000 FEET WITH NO
SIGNIFICANT WEATHER AND/OR OBSTRUCTIONS TO VISIBILITY.

MTZ001>007-043-290800-
WEST OF THE DIVIDE

CITY           SKY/WX    TMP DP  RH WIND       PRES   REMARKS
KALISPELL      PTCLDY    42  39  89 CALM      30.04S
MISSOULA       PTCLDY    45  36  70 CALM      30.08S
BUTTE          CLEAR     39  33  79 CALM      30.12R
MULLAN PASS    PTCLDY    39  30  70 S6        30.08S
ANACONDA         N/A     41  34  75 SW6       30.10S
DEER LODGE       N/A     37  32  81 CALM      30.11S
EUREKA           N/A     45  37  76 CALM      30.04S
HAMILTON         N/A     45  36  70 CALM      30.08R
LIBBY            N/A     43  37  81 CALM      30.05S
$$

MTZ008-052>055-290800-
SOUTHWEST MONTANA

CITY           SKY/WX    TMP DP  RH WIND       PRES   REMARKS
BOZEMAN        CLEAR     42  39  89 SE6       30.08S
DILLON         CLOUDY    47  35  63 NW6       30.08R
W YELLOWSTONE  CLEAR     30  30 100 CALM      30.19R
ENNIS          CLOUDY    46  37  71 S9        30.14S
$$

MTZ009-010-012-014-046-048-049-054-290800-
EAST SLOPES AND CENTRAL MONTANA

CITY           SKY/WX    TMP DP  RH WIND       PRES   REMARKS
CUT BANK       MOCLDY    47  32  56 W14       29.99S
GREAT FALLS    CLEAR     42  32  67 S9        30.03S
MALMSTROM AFB  CLEAR     39  36  86 S9        30.03S
HELENA         CLEAR     47  34  60 CALM      30.05S
CHOTEAU          N/A     48  32  53 W3        30.02S
$$

MTZ011-013-016-021-045-047-050-051-290800-
NORTH CENTRAL MONTANA

CITY           SKY/WX    TMP DP  RH WIND       PRES   REMARKS
HAVRE          CLEAR     45  36  70 S8        29.99R
LEWISTOWN      CLEAR     40  33  76 E7        30.06R
N BAR RANCH      N/A     36  32  87 NW7       30.10R WCI  30
CHINOOK          N/A     46  36  66 W5        29.99R
$$

MTZ017>020-022>027-061-062-290800-
NORTHEAST MONTANA

CITY           SKY/WX    TMP DP  RH WIND       PRES   REMARKS
GLASGOW        PTCLDY    51  39  63 SW5       29.98R
JORDAN           N/A     44  38  79 W8        30.02R
SIDNEY         CLEAR     48  45  87 W3        29.98S
WOLF POINT     CLEAR     42  39  89 CALM      29.99R
PLENTYWOOD       N/A     50  46  87 CALM      29.97R
POPLAR           N/A     48  45  87 CALM      29.99R
$$

MTZ028>42-056>058-290800-
SOUTHCENTRAL AND SOUTHEAST MONTANA

CITY           SKY/WX    TMP DP  RH WIND       PRES   REMARKS
BAKER          CLEAR     45  39  79 CALM      30.04R
BILLINGS       CLEAR     53  41  63 S7        30.06R
LIVINGSTON     MOCLDY    45  38  76 NW10      30.08R
MILES CITY     PTCLDY    55  45  68 NW3       30.02R
FORSYTH          N/A     52  45  76 S3        30.03R
$$

REGIONAL REPORTS...DAKOTAS

CITY           SKY/WX    TMP DP  RH WIND       PRES   REMARKS
WILLISTON      CLEAR     48  47  96 SW5       29.97S
MINOT          MOCLDY    57  54  89 W3        29.94R
DICKINSON      CLEAR     47  46  97 W7        29.98R
BEACH          MOCLDY    46  45  93 CALM      30.05R
CROSBY           N/A     48  48 100 SW8       29.96S
WATFORD CITY     N/A     48  48 100 SW3       29.98S
BISMARCK       CLEAR     52  52 100 W6        29.96R
GRAND FORKS    CLOUDY    60  58  92 NW3       29.86S
FARGO          CLOUDY    61  58  90 W6        29.86S
BUFFALO SD       N/A     50  42  74 W6        29.98R
RAPID CITY     CLEAR     51  45  79 NW8       30.04S
$$

REGIONAL REPORTS...WYOMING/IDAHO/WASHINGTON

CITY           SKY/WX    TMP DP  RH WIND       PRES   REMARKS
GILLETTE       CLOUDY    51  43  74 SE5       30.07F
SHERIDAN       CLEAR     48  43  82 S5        30.07S
BUFFALO WY     MOCLDY    51  42  71 S6        30.11R
CODY           CLEAR     48  41  76 S5        30.10S
YELLOWSTONE LA   N/A     30  26  85 CALM      30.24S
IDAHO FALLS    CLEAR     40  35  83 CALM      30.12R
SALMON         CLEAR     43  34  70 CALM      30.06R
BOISE          CLEAR     56  33  42 SE10      30.02S
SPOKANE        MOCLDY    52  37  56 SE6       30.00S
$$

REGIONAL REPORTS...ALBERTA

CITY           SKY/WX    TMP DP  RH WIND       PRES   REMARKS
EDMONTON       PTCLDY    46  41  81 SW5       29.84S
CALGARY        MOCLDY    50  30  46 SW5       29.87S
LETHBRIDGE     CLEAR     41  32  70 SW12      29.94S
MEDICINE HAT   CLEAR     45  39  81 VRB2      29.92R
WATERTON GATE    N/A     46  28  49 SW9         N/A
CARDSTON         N/A     45  28  53 S5          N/A
MILK RIVER       N/A     43  32  65 W8          N/A
$$

REGIONAL REPORTS...SASKATCHEWAN

CITY           SKY/WX    TMP DP  RH WIND       PRES   REMARKS
SWIFT CURRENT  CLEAR     45  43  93 S8        29.91S
REGINA         PTCLDY    48  45  87 SW8       29.92R
SASKATOON      PTCLDY    46  46 100 SW6       29.88S
CYPRESS HILLS    N/A     45  28  53 W5          N/A
VAL MARIE        N/A     41  37  87 SW2         N/A
ROCKGLEN         N/A     43  41  93 SW6         N/A
ASSINIBOIA       N/A     45  43  93 SE3         N/A
$$




USA.gov is the U.S. government's official web portal to all federal, state and local government web resources and services.